Location: Ferma
(41.9500°N, 44.5167°E)
Time: 19:46:47
(UTC+00:00)

NOSS 2-3 (C) - Pass Details

Date: 24 October 2021
Orbit: 536 x 1675 km, 63.3° (Epoch: 25 November)

Event Time Altitude Azimuth Distance (km) Brightness Sun altitude
Rises 14:44:19 0° 204° (SSW) 2,671 7.3 -7.6°
Reaches altitude 10° 14:46:26 10° 200° (SSW) 1,788 6.3 -8.0°
Maximum altitude 14:50:16 59° 121° (ESE) 657 3.5 -8.7°
Drops below altitude 10° 14:54:36 10° 42° (NE) 2,029 5.8 -9.5°
Enters shadow 14:55:57 - 40° (NE) 2,585 6.3 -9.8°
